User: anonymous   Login
Location: Mentone
(34.5413°N, 85.5351°W)
Time: 20:21:01
(UTC-05:00)
Language:

UOSAT-12 - Orbit

View from above orbital plane
View from above orbital plane
View from above satellite
View from above satellite

Ground track
Ground track

The orbit data is extracted from the following two-line orbital elements,

1 25693U 99021A   16145.49943670 -.00000017  00000-0  16230-4 0  9990
2 25693  64.5566 243.5265 0009248 213.9642 146.0872 14.80651807922614
Epoch (UTC): 24 May 2016 11:59:11
Eccentricity: 0.0009248
inclination: 64.5566°
perigee height: 621 km
apogee height: 634 km
right ascension of ascending node: 243.5265°
argument of perigee: 213.9642°
revolutions per day: 14.80651807
mean anomaly at epoch: 146.0872°
orbit number at epoch: 92261

The dashed part of the orbit path shows where the satellite is in the earth's shadow,  

DLR